Printer-friendly version

IAU Minor Planet Center

Minor Planet Center

MPEC 2004-D43 : S/2002 J 1

The following Minor Planet Electronic Circular may be linked-to from your own Web pages, but must not otherwise be redistributed electronically.


Read MPEC 2004-D42 Read MPEC 2004-D44


M.P.E.C. 2004-D43                                Issued 2004 Feb. 27, 18:47 UT

     The Minor Planet Electronic Circulars contain information on unusual
         minor planets and routine data on comets.  They are published
   on behalf of Commission 20 of the International Astronomical Union by the
          Minor Planet Center, Smithsonian Astrophysical Observatory,
                          Cambridge, MA 02138, U.S.A.

         Supported in part by the Steven and Michele Kirsch Foundation
             Prepared using the Tamkin Foundation Computer Network

                              MPC@CFA.HARVARD.EDU
          URL http://cfa-www.harvard.edu/iau/mpc.html  ISSN 1523-6714

                                  S/2002 J 1

                           Revision to MPEC 2002-Y22

Additional Observations:
    SK02J010  C2003 12 24.54886 11 15 22.40 +05 40 57.1          23.6 R ED043568
    SK02J010  C2003 12 24.58006 11 15 22.49 +05 40 56.3          23.8 R ED043568
    SK02J010  C2003 12 24.61573 11 15 22.59 +05 40 55.2          23.5 R ED043568
    SK02J010  C2003 12 25.54849 11 15 25.90 +05 40 37.7          23.8 R ED043568
    SK02J010  C2003 12 25.57968 11 15 25.98 +05 40 37.0          23.8 R ED043568
    SK02J010  C2003 12 25.61085 11 15 26.05 +05 40 36.5          23.7 R ED043568

Observer details:
568 Mauna Kea.  Observers B. Gladman, J. Kavelaars, L. Allen.  Measurers
    L. Allen, B. Gladman, J. Kavelaars.  3.5-m Canada-France-Hawaii telescope
    + CCD.

Orbital elements:
S/2002 J 1
Epoch 2004 July 14.0 TT = JDT 2453200.5                 MPC
M 134.03215              (2000.0)            P               Q
n   0.48261351     Peri.  190.35191     -0.95794373     +0.28539006
a   0.1585037      Node   353.53137     +0.27860106     +0.94996919
e   0.1492568      Incl.  164.58869     +0.06874055     +0.12692929
P   2.04           H   16.2           P/d   745.94
Residuals in seconds of arc
021031 568  0.1+  0.1+    021205 568  0.3+  0.2-    030327 568  0.0   0.2+
021031 568  0.4-  0.3+    021205 568  0.1-  0.1-    030327 568  0.1+  0.2+
021101 568  0.0   0.1-    030224 568  0.2-  0.3-    030327 568  0.2+  0.1+
021101 568  0.3-  0.1-    030224 568  0.2-  0.4-    031224 568  0.4+  0.4+
021107 568  0.2+  0.3-    030225 568  0.0   0.1+    031224 568  0.3+  0.2+
021107 568  0.9-  0.2-    030225 568  0.1-  0.1-    031224 568  0.1+  0.1-
021203 568  0.1-  0.2+    030225 568  0.2-  0.3+    031225 568  0.1-  0.6+
021203 568  0.1+  0.1+    030227 568  0.3+  0.4+    031225 568  0.1-  0.5+
021205 568  0.4+  0.1+    030227 568  0.2+  0.4+    031225 568  0.2-  0.5+
021205 568  0.4+  0.0     030227 568  0.2+  0.5+

Ephemeris:
    S/2002 J 1                                                   q = 0.1348
Date    TT    R. A. (2000) Decl.     Delta     r_J   dR.A. ("/m)  dDecl.m1"/')
2004 02 25    10 59.02   +07 28.1    4.451    0.152  6981-/7.82-   871+/ 14.5+
2004 03 06    10 54.03   +07 59.6    4.430    0.154  7124-/7.99-   909+/ 15.1+
2004 03 16    10 49.17   +08 29.9    4.441    0.156  7186-/8.07-   941+/ 15.7+
2004 03 26    10 44.78   +08 56.9    4.481    0.158  7167-/8.06-   969+/ 16.2+
2004 04 05    10 41.15   +09 19.0    4.549    0.160  7072-/7.96-   993+/ 16.5+
2004 04 15    10 38.50   +09 35.0    4.640    0.162  6907-/7.78-  1011+/ 16.9+
2004 04 25    10 36.98   +09 44.2    4.751    0.164  6677-/7.53-  1024+/ 17.1+
2004 05 05    10 36.67   +09 46.1    4.876    0.166  6390-/7.20-  1029+/ 17.2+
2004 05 15    10 37.55   +09 40.9    5.012    0.168  6053-/6.82-  1026+/ 17.1+
2004 05 25    10 39.60   +09 28.9    5.155    0.169  5672-/6.39-  1012+/ 16.9+
2004 06 04    10 42.73   +09 10.4    5.299    0.171  5252-/5.91-   985+/ 16.4+
2004 06 14    10 46.84   +08 46.0    5.442    0.173  4799-/5.39-   944+/ 15.7+
2004 06 24    10 51.83   +08 16.2    5.581    0.174  4316-/4.85-   889+/ 14.8+
2004 07 04    10 57.59   +07 41.4    5.712    0.175  3809-/4.27-   818+/ 13.6+
2004 07 14    11 04.00   +07 02.4    5.834    0.177  3281-/3.67-   734+/ 12.2+
2004 07 24    11 10.99   +06 19.6    5.943    0.178  2735-/3.06-   635+/ 10.6+
2004 08 03    11 18.43   +05 33.5    6.039    0.179  2176-/2.43-   523+/  8.7+
2004 08 13    11 26.26   +04 44.9    6.120    0.179  1606-/1.79-   401+/  6.7+

Brian G. Marsden             (C) Copyright 2004 MPC           M.P.E.C. 2004-D43

Read MPEC 2004-D42 Read MPEC 2004-D44


Our Web policy. Index to the CBAT/MPC/ICQ pages.


Valid HTML 4.01!